Погода в Чаренцаване

Армения     40°24′12″N   44°38′46″E
темп.,
°C
ветер,
м/с
пор.,
м/с
влажн.,
%
обл.,
%
осадки,
мм/ч
давл.,
гПа
погр.,
м
4 марта, чт
чт401:00−11сз117740 0.0 102321
04:00−11з117548 0.0 102521
07:00−12юз01720 0.0 102721
10:00−6юз01730 0.0 102764
13:00−3юз23730 0.0 1025568
16:00−3ссз12720 0.0 1023357
19:00−8св338829 0.0 102429
22:00−9св349359 0.1 102550
5 марта, пт
пт501:00−10св339361 0.0 102447
04:00−10св339181 0.0 102449
07:00−11всв2389100 0.0 102331
10:00−6св2288100 0.0 102284
13:00−1св118891 0.0 1019281
16:00−1в118857 0.0 1018235
19:00−7сз01770 0.0 102121
22:00−9юв01520 0.0 102521
6 марта, сб
сб601:00−9ю11530 0.0 102621
04:00−9ююз22590 0.0 102721
07:00−10юз23610 0.0 102723
10:00−5юз34690 0.0 1026128
13:00−2юз45680 0.0 1023269
16:00−2юз46680 0.0 1020285
19:00−7юз23610 0.0 102221
22:00−8юз226043 0.0 102221
7 марта, вс
вс701:00−8юз126497 0.0 102121
04:00−7юз226899 0.0 101922
07:00−7юз3372100 0.0 101943
10:00−4юз367491 0.0 1018235
13:00−1юз35742 0.0 1017554
16:00−1юз137116 0.0 1016520
19:00−6зюз117757 0.0 101921
22:00−7ююв019376 0.1 102122
8 марта, пн
пн801:00−7всв019294 0.1 102221
04:00−8всв119195 0.1 102221
07:00−9всв229497 0.1 102023
10:00−6св339499 0.6 1019186
13:00−5ссв3496100 3.6 1017312
16:00−4ссв2294100 6.6 1015282
19:00−8св239377 0.2 101724
22:00−11св128939 0.2 101921